Time,TemperatureF,DewpointF,PressureIn,WindDirection,WindDirectionDegrees,WindSpeedMPH,WindSpeedGustMPH,Humidity,HourlyPrecipIn,Conditions,Clouds,dailyrainin,SoftwareType,DateUTC
2013-03-19 00:00:00,42.1,42.1,29.82,ENE,75,0.0,2.0,100,0.00,,SKC,0.46,VWS V14.01,2013-03-19 04:00:00,
2013-03-19 00:01:00,42.1,42.1,29.82,ENE,75,0.0,2.0,100,0.00,,SKC,0.46,VWS V14.01,2013-03-19 04:01:00,
2013-03-19 00:06:00,42.1,42.1,29.83,ENE,75,0.0,1.0,100,0.00,,SKC,0.00,VWS V14.01,2013-03-19 04:06:00,
2013-03-19 00:10:00,41.9,41.9,29.83,ENE,75,0.0,1.0,100,0.00,,SKC,0.00,VWS V14.01,2013-03-19 04:10:00,
2013-03-19 00:15:00,41.9,41.9,29.83,ENE,75,0.0,1.0,100,0.00,,SKC,0.00,VWS V14.01,2013-03-19 04:15:00,
2013-03-19 00:20:00,41.9,41.9,29.83,ENE,75,0.0,1.0,100,0.00,,SKC,0.00,VWS V14.01,2013-03-19 04:20:00,
2013-03-19 00:25:00,41.9,41.9,29.83,ENE,75,0.0,1.0,100,0.00,,SKC,0.00,VWS V14.01,2013-03-19 04:25:00,
2013-03-19 00:30:00,41.9,41.9,29.83,ENE,75,0.0,1.0,100,0.00,,SKC,0.00,VWS V14.01,2013-03-19 04:30:00,
2013-03-19 00:35:00,41.9,41.9,29.83,ENE,75,0.0,0.0,100,0.00,,SKC,0.00,VWS V14.01,2013-03-19 04:35:00,
2013-03-19 00:40:00,41.9,41.9,29.83,ENE,75,0.0,0.0,100,0.00,,SKC,0.00,VWS V14.01,2013-03-19 04:40:00,
2013-03-19 00:45:00,41.9,41.9,29.83,ENE,75,0.0,0.0,100,0.00,,SKC,0.00,VWS V14.01,2013-03-19 04:45:00,
2013-03-19 00:50:00,41.9,41.9,29.83,ENE,75,0.0,0.0,100,0.00,,SKC,0.00,VWS V14.01,2013-03-19 04:50:00,
2013-03-19 00:55:00,41.9,41.9,29.83,ENE,75,0.0,0.0,100,0.00,,SKC,0.00,VWS V14.01,2013-03-19 04:55:00,
2013-03-19 01:00:00,42.1,42.1,29.83,ENE,75,0.0,0.0,100,0.00,,SKC,0.00,VWS V14.01,2013-03-19 05:00:00,
2013-03-19 01:05:00,42.1,42.1,29.82,ENE,75,0.0,0.0,100,0.00,,SKC,0.00,VWS V14.01,2013-03-19 05:05:00,
2013-03-19 01:10:00,42.1,42.1,29.82,ENE,75,0.0,0.0,100,0.00,,SKC,0.00,VWS V14.01,2013-03-19 05:10:00,
2013-03-19 01:15:00,42.1,42.1,29.82,ENE,75,0.0,0.0,100,0.00,,SKC,0.00,VWS V14.01,2013-03-19 05:15:00,
2013-03-19 01:20:00,42.1,42.1,29.83,ENE,75,0.0,0.0,100,0.00,,SKC,0.00,VWS V14.01,2013-03-19 05:20:00,
2013-03-19 01:25:00,42.1,42.1,29.83,ENE,75,0.0,0.0,100,0.00,,SKC,0.00,VWS V14.01,2013-03-19 05:25:00,
2013-03-19 01:30:00,42.2,42.2,29.83,ENE,75,0.0,0.0,100,0.00,,SKC,0.00,VWS V14.01,2013-03-19 05:30:00,
2013-03-19 01:35:00,42.2,42.2,29.83,ENE,75,0.0,0.0,100,0.00,,SKC,0.00,VWS V14.01,2013-03-19 05:35:00,
2013-03-19 01:40:00,42.2,42.2,29.83,ENE,75,0.0,1.0,100,0.00,,SKC,0.00,VWS V14.01,2013-03-19 05:40:00,
2013-03-19 01:45:00,42.2,42.2,29.83,ENE,75,0.0,1.0,100,0.00,,SKC,0.00,VWS V14.01,2013-03-19 05:45:00,
2013-03-19 01:50:00,42.3,42.3,29.83,ENE,75,0.0,1.0,100,0.00,,SKC,0.00,VWS V14.01,2013-03-19 05:50:00,
2013-03-19 01:55:00,42.3,42.3,29.83,ENE,75,0.0,1.0,100,0.00,,SKC,0.00,VWS V14.01,2013-03-19 05:55:00,
2013-03-19 02:00:00,42.3,42.3,29.83,ENE,75,1.0,1.0,100,0.00,,SKC,0.00,VWS V14.01,2013-03-19 06:00:00,
2013-03-19 02:05:00,42.3,42.3,29.83,ENE,75,0.0,0.0,100,0.00,,SKC,0.00,VWS V14.01,2013-03-19 06:05:00,
2013-03-19 02:10:00,42.3,42.3,29.83,ENE,75,0.0,0.0,100,0.00,,SKC,0.00,VWS V14.01,2013-03-19 06:10:00,
2013-03-19 02:15:00,42.3,42.3,29.83,ENE,75,0.0,0.0,100,0.00,,SKC,0.00,VWS V14.01,2013-03-19 06:15:00,
2013-03-19 02:20:00,42.3,42.3,29.83,ENE,75,0.0,0.0,100,0.00,,SKC,0.00,VWS V14.01,2013-03-19 06:20:00,
2013-03-19 02:25:00,42.5,42.5,29.83,ENE,75,0.0,0.0,100,0.00,,SKC,0.00,VWS V14.01,2013-03-19 06:25:00,
2013-03-19 02:30:00,42.5,42.5,29.83,ENE,75,0.0,0.0,100,0.00,,SKC,0.00,VWS V14.01,2013-03-19 06:30:00,
2013-03-19 02:35:00,42.5,42.5,29.83,ENE,75,0.0,0.0,100,0.00,,SKC,0.00,VWS V14.01,2013-03-19 06:35:00,
2013-03-19 02:40:00,42.5,42.5,29.83,ENE,75,0.0,0.0,100,0.00,,SKC,0.00,VWS V14.01,2013-03-19 06:40:00,
2013-03-19 02:45:00,42.5,42.5,29.83,ENE,75,0.0,0.0,100,0.00,,SKC,0.00,VWS V14.01,2013-03-19 06:45:00,
2013-03-19 02:50:00,42.5,42.5,29.82,ENE,75,0.0,0.0,100,0.00,,SKC,0.00,VWS V14.01,2013-03-19 06:50:00,
2013-03-19 02:55:00,42.5,42.5,29.82,ENE,75,0.0,0.0,100,0.00,,SKC,0.00,VWS V14.01,2013-03-19 06:55:00,
2013-03-19 03:00:00,42.5,42.5,29.82,ENE,75,0.0,0.0,100,0.00,,SKC,0.00,VWS V14.01,2013-03-19 07:00:00,
2013-03-19 03:05:00,42.5,42.5,29.82,ENE,75,0.0,0.0,100,0.00,,SKC,0.00,VWS V14.01,2013-03-19 07:05:00,
2013-03-19 03:10:00,42.5,42.5,29.82,ENE,75,0.0,0.0,100,0.00,,SKC,0.00,VWS V14.01,2013-03-19 07:10:00,
2013-03-19 03:15:00,42.5,42.5,29.82,ENE,75,0.0,0.0,100,0.00,,SKC,0.00,VWS V14.01,2013-03-19 07:15:00,
2013-03-19 03:20:00,42.3,42.3,29.82,ENE,75,0.0,0.0,100,0.00,,SKC,0.00,VWS V14.01,2013-03-19 07:20:00,
2013-03-19 03:25:00,42.5,42.5,29.82,ENE,75,0.0,0.0,100,0.00,,SKC,0.00,VWS V14.01,2013-03-19 07:25:00,
2013-03-19 03:30:00,42.5,42.5,29.82,ENE,75,0.0,0.0,100,0.00,,SKC,0.00,VWS V14.01,2013-03-19 07:30:00,
2013-03-19 03:35:00,42.5,42.5,29.81,ENE,75,0.0,0.0,100,0.00,,SKC,0.00,VWS V14.01,2013-03-19 07:35:00,
2013-03-19 03:40:00,42.5,42.5,29.81,ENE,75,0.0,0.0,100,0.00,,SKC,0.00,VWS V14.01,2013-03-19 07:40:00,
2013-03-19 03:45:00,42.5,42.5,29.81,ENE,75,0.0,0.0,100,0.00,,SKC,0.00,VWS V14.01,2013-03-19 07:45:00,
2013-03-19 03:50:00,42.6,42.6,29.81,ENE,75,0.0,0.0,100,0.00,,SKC,0.00,VWS V14.01,2013-03-19 07:50:00,
2013-03-19 03:55:00,42.6,42.6,29.81,ENE,75,0.0,0.0,100,0.00,,SKC,0.00,VWS V14.01,2013-03-19 07:55:00,
2013-03-19 04:00:00,42.6,42.6,29.81,ENE,75,0.0,0.0,100,0.00,,SKC,0.00,VWS V14.01,2013-03-19 08:00:00,
2013-03-19 04:05:00,42.6,42.6,29.80,ENE,75,0.0,0.0,100,0.00,,SKC,0.00,VWS V14.01,2013-03-19 08:05:00,
2013-03-19 04:10:00,42.8,42.8,29.80,ENE,75,0.0,1.0,100,0.00,,SKC,0.00,VWS V14.01,2013-03-19 08:10:00,
2013-03-19 04:15:00,42.8,42.8,29.80,ENE,75,0.0,1.0,100,0.00,,SKC,0.00,VWS V14.01,2013-03-19 08:15:00,
2013-03-19 04:20:00,42.8,42.8,29.78,ENE,75,0.0,1.0,100,0.00,,SKC,0.00,VWS V14.01,2013-03-19 08:20:00,
2013-03-19 04:25:00,42.8,42.8,29.78,ENE,75,0.0,1.0,100,0.00,,SKC,0.00,VWS V14.01,2013-03-19 08:25:00,
2013-03-19 04:30:00,42.8,42.8,29.78,ENE,75,0.0,1.0,100,0.00,,SKC,0.00,VWS V14.01,2013-03-19 08:30:00,
2013-03-19 04:35:00,42.8,42.8,29.78,ENE,75,0.0,0.0,100,0.00,,SKC,0.00,VWS V14.01,2013-03-19 08:35:00,
2013-03-19 04:40:00,42.8,42.8,29.78,ENE,75,0.0,0.0,100,0.00,,SKC,0.00,VWS V14.01,2013-03-19 08:40:00,
2013-03-19 04:45:00,42.8,42.8,29.78,ENE,75,0.0,0.0,100,0.00,,SKC,0.00,VWS V14.01,2013-03-19 08:45:00,
2013-03-19 04:50:00,42.8,42.8,29.78,ENE,75,0.0,0.0,100,0.00,,SKC,0.00,VWS V14.01,2013-03-19 08:50:00,
2013-03-19 04:55:00,42.6,42.6,29.78,ENE,75,0.0,1.0,100,0.00,,SKC,0.00,VWS V14.01,2013-03-19 08:55:00,
2013-03-19 05:00:00,42.6,42.6,29.78,ENE,75,0.0,1.0,100,0.00,,SKC,0.00,VWS V14.01,2013-03-19 09:00:00,
2013-03-19 05:05:00,42.6,42.6,29.79,ENE,75,0.0,0.0,100,0.00,,SKC,0.00,VWS V14.01,2013-03-19 09:05:00,
2013-03-19 05:10:00,42.6,42.6,29.79,ENE,75,0.0,0.0,100,0.00,,SKC,0.00,VWS V14.01,2013-03-19 09:10:00,
2013-03-19 05:15:00,42.6,42.6,29.79,NNE,13,0.0,1.0,100,0.00,,SKC,0.00,VWS V14.01,2013-03-19 09:15:00,
2013-03-19 05:20:00,42.6,42.6,29.79,NNW,346,0.0,1.0,100,0.00,,SKC,0.00,VWS V14.01,2013-03-19 09:20:00,
2013-03-19 05:25:00,42.5,42.5,29.79,NNW,346,0.0,1.0,100,0.00,,SKC,0.00,VWS V14.01,2013-03-19 09:25:00,
2013-03-19 05:30:00,42.5,42.5,29.79,NNW,346,0.0,1.0,100,0.00,,SKC,0.00,VWS V14.01,2013-03-19 09:30:00,
2013-03-19 05:35:00,42.5,42.5,29.80,NW,315,0.0,0.0,100,0.00,,SKC,0.00,VWS V14.01,2013-03-19 09:35:00,
2013-03-19 05:40:00,42.5,42.5,29.80,NW,315,0.0,0.0,100,0.00,,SKC,0.00,VWS V14.01,2013-03-19 09:40:00,
2013-03-19 05:45:00,42.5,42.5,29.80,NW,313,0.0,0.0,100,0.00,,SKC,0.00,VWS V14.01,2013-03-19 09:45:00,
2013-03-19 05:50:00,42.3,42.3,29.80,NW,311,0.0,1.0,100,0.00,,SKC,0.00,VWS V14.01,2013-03-19 09:50:00,
2013-03-19 05:55:00,42.3,42.3,29.80,NW,311,0.0,1.0,100,0.00,,SKC,0.00,VWS V14.01,2013-03-19 09:55:00,
2013-03-19 06:00:00,42.3,42.3,29.80,NW,311,0.0,1.0,100,0.00,,SKC,0.00,VWS V14.01,2013-03-19 10:00:00,
2013-03-19 06:05:00,42.2,42.2,29.80,NW,311,0.0,0.0,100,0.00,,SKC,0.00,VWS V14.01,2013-03-19 10:05:00,
2013-03-19 06:10:00,42.2,42.2,29.80,NW,311,0.0,0.0,100,0.00,,SKC,0.00,VWS V14.01,2013-03-19 10:10:00,
2013-03-19 06:15:00,42.2,42.2,29.80,NW,311,0.0,0.0,100,0.00,,SKC,0.00,VWS V14.01,2013-03-19 10:15:00,
2013-03-19 06:20:00,42.1,42.1,29.80,NW,311,0.0,0.0,100,0.00,,SKC,0.00,VWS V14.01,2013-03-19 10:20:00,
2013-03-19 06:25:00,42.1,42.1,29.80,NW,311,0.0,0.0,100,0.00,,SKC,0.00,VWS V14.01,2013-03-19 10:25:00,
2013-03-19 06:30:00,42.2,42.2,29.80,WNW,287,0.0,1.0,100,0.00,,SKC,0.00,VWS V14.01,2013-03-19 10:30:00,
2013-03-19 06:35:00,42.2,42.2,29.81,West,277,0.0,1.0,100,0.00,,SKC,0.00,VWS V14.01,2013-03-19 10:35:00,
2013-03-19 06:40:00,42.3,42.3,29.81,NNW,336,0.0,1.0,100,0.00,,SKC,0.00,VWS V14.01,2013-03-19 10:40:00,
2013-03-19 06:45:00,42.3,42.3,29.81,NNW,336,0.0,1.0,100,0.00,,SKC,0.00,VWS V14.01,2013-03-19 10:45:00,
2013-03-19 06:50:00,42.3,42.3,29.82,NNW,336,0.0,1.0,100,0.00,,SKC,0.00,VWS V14.01,2013-03-19 10:50:00,
2013-03-19 06:55:00,42.3,42.3,29.82,NNW,336,0.0,1.0,100,0.00,,SKC,0.00,VWS V14.01,2013-03-19 10:55:00,
2013-03-19 07:00:00,42.2,42.2,29.82,NNW,336,0.0,1.0,100,0.00,,SKC,0.00,VWS V14.01,2013-03-19 11:00:00,
2013-03-19 07:05:00,42.2,42.2,29.83,NNW,336,0.0,0.0,100,0.00,,SKC,0.00,VWS V14.01,2013-03-19 11:05:00,
2013-03-19 07:10:00,42.3,42.3,29.83,NNW,344,0.0,2.0,100,0.00,,SKC,0.00,VWS V14.01,2013-03-19 11:10:00,
2013-03-19 07:15:00,42.5,42.5,29.83,North,7,1.0,2.0,100,0.00,,SKC,0.00,VWS V14.01,2013-03-19 11:15:00,
2013-03-19 07:20:00,42.5,42.5,29.84,North,7,0.0,2.0,100,0.00,,SKC,0.00,VWS V14.01,2013-03-19 11:20:00,
2013-03-19 07:25:00,42.5,42.5,29.84,North,7,0.0,2.0,100,0.00,,SKC,0.00,VWS V14.01,2013-03-19 11:25:00,
2013-03-19 07:30:00,42.5,42.5,29.84,NNE,32,0.0,2.0,100,0.00,,SKC,0.00,VWS V14.01,2013-03-19 11:30:00,
2013-03-19 07:35:00,42.3,42.3,29.86,NNE,23,0.0,1.0,100,0.00,,SKC,0.00,VWS V14.01,2013-03-19 11:35:00,
2013-03-19 07:40:00,42.2,42.2,29.86,NNW,343,0.0,6.0,100,0.00,,SKC,0.00,VWS V14.01,2013-03-19 11:40:00,
2013-03-19 07:45:00,42.1,42.1,29.86,NNW,343,0.0,6.0,100,0.00,,SKC,0.00,VWS V14.01,2013-03-19 11:45:00,
2013-03-19 07:50:00,42.1,42.1,29.86,NNW,343,0.0,6.0,100,0.00,,SKC,0.00,VWS V14.01,2013-03-19 11:50:00,
2013-03-19 07:55:00,41.9,41.9,29.86,NNW,343,0.0,6.0,100,0.00,,SKC,0.00,VWS V14.01,2013-03-19 11:55:00,
2013-03-19 08:00:00,41.9,41.9,29.86,NNW,343,0.0,6.0,100,0.00,,SKC,0.00,VWS V14.01,2013-03-19 12:00:00,
2013-03-19 08:05:00,41.9,41.9,29.86,NNW,343,0.0,0.0,100,0.00,,SKC,0.00,VWS V14.01,2013-03-19 12:05:00,
2013-03-19 08:10:00,41.9,41.9,29.86,NNW,343,0.0,0.0,100,0.00,,SKC,0.00,VWS V14.01,2013-03-19 12:10:00,
2013-03-19 08:15:00,42.1,42.1,29.86,NNW,343,0.0,0.0,100,0.00,,SKC,0.00,VWS V14.01,2013-03-19 12:15:00,
2013-03-19 08:20:00,42.2,42.2,29.87,NNW,343,0.0,0.0,100,0.00,,SKC,0.00,VWS V14.01,2013-03-19 12:20:00,
2013-03-19 08:25:00,42.2,42.2,29.87,NNW,343,0.0,0.0,100,0.00,,SKC,0.00,VWS V14.01,2013-03-19 12:25:00,
2013-03-19 08:30:00,42.3,42.3,29.87,NNW,343,0.0,0.0,100,0.00,,SKC,0.00,VWS V14.01,2013-03-19 12:30:00,
2013-03-19 08:35:00,42.5,42.5,29.88,NNW,343,0.0,0.0,100,0.00,,SKC,0.00,VWS V14.01,2013-03-19 12:35:00,
2013-03-19 08:40:00,42.6,42.6,29.88,NNW,343,0.0,0.0,100,0.00,,SKC,0.00,VWS V14.01,2013-03-19 12:40:00,
2013-03-19 08:45:00,42.8,42.8,29.88,NNW,343,0.0,0.0,100,0.00,,SKC,0.00,VWS V14.01,2013-03-19 12:45:00,
2013-03-19 08:50:00,42.9,42.9,29.88,NNW,343,0.0,0.0,100,0.00,,SKC,0.00,VWS V14.01,2013-03-19 12:50:00,
2013-03-19 08:55:00,43.1,43.1,29.88,NNW,343,0.0,0.0,100,0.00,,SKC,0.00,VWS V14.01,2013-03-19 12:55:00,
2013-03-19 09:00:00,43.2,43.2,29.88,NNW,343,0.0,0.0,100,0.00,,SKC,0.00,VWS V14.01,2013-03-19 13:00:00,
2013-03-19 09:05:00,43.3,43.3,29.89,NNW,343,0.0,1.0,100,0.00,,SKC,0.00,VWS V14.01,2013-03-19 13:05:00,
2013-03-19 09:10:00,43.9,43.9,29.89,NNW,343,0.0,1.0,100,0.00,,SKC,0.00,VWS V14.01,2013-03-19 13:10:00,
2013-03-19 09:15:00,44.6,44.6,29.89,NNW,343,0.0,2.0,100,0.00,,SKC,0.00,VWS V14.01,2013-03-19 13:15:00,
2013-03-19 09:20:00,45.2,45.2,29.89,NNW,346,0.0,3.0,100,0.00,,SKC,0.00,VWS V14.01,2013-03-19 13:20:00,
2013-03-19 09:25:00,45.7,45.7,29.89,NE,35,0.0,3.0,100,0.00,,SKC,0.00,VWS V14.01,2013-03-19 13:25:00,
2013-03-19 09:30:00,46.0,46.0,29.89,ENE,58,0.0,3.0,100,0.00,,SKC,0.00,VWS V14.01,2013-03-19 13:30:00,
2013-03-19 09:35:00,46.2,46.2,29.89,North,3,0.0,2.0,100,0.00,,SKC,0.00,VWS V14.01,2013-03-19 13:35:00,
2013-03-19 09:40:00,46.5,46.5,29.89,North,0,0.0,3.0,100,0.00,,SKC,0.00,VWS V14.01,2013-03-19 13:40:00,
2013-03-19 09:45:00,46.7,46.7,29.89,North,0,0.0,3.0,100,0.00,,SKC,0.00,VWS V14.01,2013-03-19 13:45:00,
2013-03-19 09:50:00,47.0,47.0,29.89,ENE,71,0.0,3.0,100,0.00,,SKC,0.00,VWS V14.01,2013-03-19 13:50:00,
2013-03-19 09:55:00,47.4,47.4,29.89,ENE,58,0.0,3.0,100,0.00,,SKC,0.00,VWS V14.01,2013-03-19 13:55:00,
2013-03-19 10:00:00,47.7,47.7,29.89,ESE,103,1.0,3.0,100,0.00,,SKC,0.00,VWS V14.01,2013-03-19 14:00:00,
2013-03-19 10:05:00,48.2,47.1,29.90,ENE,75,1.0,1.0,96,0.00,,SKC,0.00,VWS V14.01,2013-03-19 14:05:00,
2013-03-19 10:10:00,48.8,44.8,29.90,East,93,0.0,3.0,86,0.00,,SKC,0.00,VWS V14.01,2013-03-19 14:10:00,
2013-03-19 10:15:00,49.4,43.8,29.90,ENE,62,2.0,3.0,81,0.00,,SKC,0.00,VWS V14.01,2013-03-19 14:15:00,
2013-03-19 10:20:00,50.1,43.5,29.89,North,1,0.0,4.0,78,0.00,,SKC,0.00,VWS V14.01,2013-03-19 14:20:00,
2013-03-19 10:25:00,51.0,44.4,29.89,North,0,1.0,4.0,78,0.00,,SKC,0.00,VWS V14.01,2013-03-19 14:25:00,
2013-03-19 10:30:00,51.7,43.0,29.89,NE,38,0.0,4.0,72,0.00,,SKC,0.00,VWS V14.01,2013-03-19 14:30:00,
2013-03-19 10:35:00,52.5,42.3,29.89,NNE,27,0.0,1.0,68,0.00,,SKC,0.00,VWS V14.01,2013-03-19 14:35:00,
2013-03-19 10:40:00,53.2,41.8,29.89,NNE,27,0.0,2.0,65,0.00,,SKC,0.00,VWS V14.01,2013-03-19 14:40:00,
2013-03-19 10:45:00,53.9,41.2,29.89,NNE,27,1.0,2.0,62,0.00,,SKC,0.00,VWS V14.01,2013-03-19 14:45:00,
2013-03-19 10:50:00,54.5,40.0,29.89,WNW,298,0.0,2.0,58,0.00,,SKC,0.00,VWS V14.01,2013-03-19 14:50:00,
2013-03-19 10:55:00,55.1,40.6,29.89,NNW,339,0.0,2.0,58,0.00,,SKC,0.00,VWS V14.01,2013-03-19 14:55:00,
2013-03-19 11:00:00,55.7,42.5,29.89,NNW,339,0.0,2.0,61,0.00,,SKC,0.00,VWS V14.01,2013-03-19 15:00:00,
2013-03-19 11:05:00,56.3,40.8,29.89,NNE,18,2.0,2.0,56,0.00,,SKC,0.00,VWS V14.01,2013-03-19 15:05:00,
2013-03-19 11:10:00,56.9,39.5,29.89,NNE,13,0.0,2.0,52,0.00,,SKC,0.00,VWS V14.01,2013-03-19 15:10:00,
2013-03-19 11:15:00,57.5,41.9,29.89,NNE,14,0.0,2.0,56,0.00,,SKC,0.00,VWS V14.01,2013-03-19 15:15:00,
2013-03-19 11:20:00,58.0,40.0,29.88,NNE,27,0.0,2.0,51,0.00,,SKC,0.00,VWS V14.01,2013-03-19 15:20:00,
2013-03-19 11:25:00,58.3,38.2,29.88,ENE,71,0.0,3.0,47,0.00,,SKC,0.00,VWS V14.01,2013-03-19 15:25:00,
2013-03-19 11:30:00,58.4,37.7,29.88,ENE,62,0.0,3.0,46,0.00,,SKC,0.00,VWS V14.01,2013-03-19 15:30:00,
2013-03-19 11:35:00,58.9,37.6,29.89,ENE,62,1.0,1.0,45,0.00,,SKC,0.00,VWS V14.01,2013-03-19 15:35:00,
2013-03-19 11:40:00,59.3,33.7,29.89,North,10,0.0,5.0,38,0.00,,SKC,0.00,VWS V14.01,2013-03-19 15:40:00,
2013-03-19 11:45:00,59.9,36.8,29.89,North,0,0.0,5.0,42,0.00,,SKC,0.00,VWS V14.01,2013-03-19 15:45:00,
2013-03-19 11:50:00,60.4,35.3,29.90,North,3,0.0,5.0,39,0.00,,SKC,0.00,VWS V14.01,2013-03-19 15:50:00,
2013-03-19 11:55:00,60.9,33.8,29.90,North,0,0.0,5.0,36,0.00,,SKC,0.00,VWS V14.01,2013-03-19 15:55:00,
2013-03-19 12:00:00,61.3,34.8,29.90,North,11,0.0,5.0,37,0.00,,SKC,0.00,VWS V14.01,2013-03-19 16:00:00,
2013-03-19 12:05:00,61.8,30.1,29.89,NNE,31,2.0,3.0,30,0.00,,SKC,0.00,VWS V14.01,2013-03-19 16:05:00,
2013-03-19 12:10:00,61.8,29.2,29.89,North,6,1.0,5.0,29,0.00,,SKC,0.00,VWS V14.01,2013-03-19 16:10:00,
2013-03-19 12:15:00,61.8,30.1,29.89,NE,51,0.0,5.0,30,0.00,,SKC,0.00,VWS V14.01,2013-03-19 16:15:00,
2013-03-19 12:20:00,62.1,33.4,29.89,ENE,58,0.0,5.0,34,0.00,,SKC,0.00,VWS V14.01,2013-03-19 16:20:00,
2013-03-19 12:25:00,62.4,32.9,29.89,North,0,0.0,5.0,33,0.00,,SKC,0.00,VWS V14.01,2013-03-19 16:25:00,
2013-03-19 12:30:00,62.7,30.8,29.89,North,0,1.0,5.0,30,0.00,,SKC,0.00,VWS V14.01,2013-03-19 16:30:00,
2013-03-19 12:35:00,63.1,30.4,29.89,North,3,2.0,5.0,29,0.00,,SKC,0.00,VWS V14.01,2013-03-19 16:35:00,
2013-03-19 12:40:00,63.2,34.4,29.89,North,359,1.0,5.0,34,0.00,,SKC,0.00,VWS V14.01,2013-03-19 16:40:00,
2013-03-19 12:45:00,63.4,33.8,29.89,North,1,0.0,5.0,33,0.00,,SKC,0.00,VWS V14.01,2013-03-19 16:45:00,
2013-03-19 12:50:00,63.7,35.6,29.90,North,4,0.0,5.0,35,0.00,,SKC,0.00,VWS V14.01,2013-03-19 16:50:00,
2013-03-19 12:55:00,64.2,34.5,29.90,SSE,148,0.0,5.0,33,0.00,,SKC,0.00,VWS V14.01,2013-03-19 16:55:00,
2013-03-19 13:00:00,64.3,28.7,29.90,South,184,1.0,5.0,26,0.00,,SKC,0.00,VWS V14.01,2013-03-19 17:00:00,
2013-03-19 13:05:00,64.5,34.0,29.89,North,359,0.0,3.0,32,0.00,,SKC,0.00,VWS V14.01,2013-03-19 17:05:00,
2013-03-19 13:10:00,64.8,35.8,29.89,North,0,0.0,3.0,34,0.00,,SKC,0.00,VWS V14.01,2013-03-19 17:10:00,
2013-03-19 13:15:00,65.0,31.1,29.89,North,0,0.0,3.0,28,0.00,,SKC,0.00,VWS V14.01,2013-03-19 17:15:00,
2013-03-19 13:20:00,65.5,30.7,29.88,North,359,0.0,3.0,27,0.00,,SKC,0.00,VWS V14.01,2013-03-19 17:20:00,
2013-03-19 13:25:00,65.5,30.7,29.88,North,0,0.0,3.0,27,0.00,,SKC,0.00,VWS V14.01,2013-03-19 17:25:00,
2013-03-19 13:30:00,66.1,35.4,29.88,North,0,0.0,3.0,32,0.00,,SKC,0.00,VWS V14.01,2013-03-19 17:30:00,
2013-03-19 13:35:00,66.6,32.5,29.87,WSW,250,0.0,0.0,28,0.00,,SKC,0.00,VWS V14.01,2013-03-19 17:35:00,
2013-03-19 13:40:00,67.1,37.1,29.87,SSW,206,0.0,2.0,33,0.00,,SKC,0.00,VWS V14.01,2013-03-19 17:40:00,
2013-03-19 13:45:00,67.6,38.3,29.87,SSW,196,0.0,2.0,34,0.00,,SKC,0.00,VWS V14.01,2013-03-19 17:45:00,
2013-03-19 13:50:00,68.3,40.3,29.86,NE,56,0.0,2.0,36,0.00,,SKC,0.00,VWS V14.01,2013-03-19 17:50:00,
2013-03-19 13:55:00,68.6,39.1,29.86,ENE,65,1.0,2.0,34,0.00,,SKC,0.00,VWS V14.01,2013-03-19 17:55:00,
2013-03-19 14:00:00,68.8,36.1,29.86,NNE,27,0.0,5.0,30,0.00,,SKC,0.00,VWS V14.01,2013-03-19 18:00:00,
2013-03-19 14:05:00,67.6,36.7,29.87,NNE,27,0.0,1.0,32,0.00,,SKC,0.00,VWS V14.01,2013-03-19 18:05:00,
2013-03-19 14:10:00,67.6,32.5,29.87,NNE,23,0.0,2.0,27,0.00,,SKC,0.00,VWS V14.01,2013-03-19 18:10:00,
2013-03-19 14:15:00,68.1,31.0,29.87,NE,35,0.0,2.0,25,0.00,,SKC,0.00,VWS V14.01,2013-03-19 18:15:00,
2013-03-19 14:20:00,68.4,30.2,29.87,NNE,17,0.0,3.0,24,0.00,,SKC,0.00,VWS V14.01,2013-03-19 18:20:00,
2013-03-19 14:25:00,68.9,26.2,29.87,NW,306,0.0,6.0,20,0.00,,SKC,0.00,VWS V14.01,2013-03-19 18:25:00,
2013-03-19 14:30:00,68.9,22.3,29.87,NW,305,0.0,6.0,17,0.00,,SKC,0.00,VWS V14.01,2013-03-19 18:30:00,
2013-03-19 14:35:00,69.4,28.9,29.86,SSE,158,0.0,3.0,22,0.00,,SKC,0.00,VWS V14.01,2013-03-19 18:35:00,
2013-03-19 14:40:00,69.8,31.4,29.86,North,0,0.0,3.0,24,0.00,,SKC,0.00,VWS V14.01,2013-03-19 18:40:00,
2013-03-19 14:45:00,69.6,30.2,29.86,North,359,0.0,3.0,23,0.00,,SKC,0.00,VWS V14.01,2013-03-19 18:45:00,
2013-03-19 14:50:00,69.6,26.8,29.85,NE,38,0.0,5.0,20,0.00,,SKC,0.00,VWS V14.01,2013-03-19 18:50:00,
2013-03-19 14:55:00,69.8,29.3,29.85,NE,35,0.0,5.0,22,0.00,,SKC,0.00,VWS V14.01,2013-03-19 18:55:00,
2013-03-19 15:00:00,69.8,27.0,29.85,SW,232,0.0,5.0,20,0.00,,SKC,0.00,VWS V14.01,2013-03-19 19:00:00,
2013-03-19 15:05:00,69.9,25.8,29.85,NNW,344,1.0,2.0,19,0.00,,SKC,0.00,VWS V14.01,2013-03-19 19:05:00,
2013-03-19 15:10:00,70.1,28.4,29.85,SSW,198,0.0,3.0,21,0.00,,SKC,0.00,VWS V14.01,2013-03-19 19:10:00,
2013-03-19 15:15:00,70.4,27.5,29.85,South,191,0.0,3.0,20,0.00,,SKC,0.00,VWS V14.01,2013-03-19 19:15:00,
2013-03-19 15:20:00,70.8,26.5,29.84,NNW,330,0.0,3.0,19,0.00,,SKC,0.00,VWS V14.01,2013-03-19 19:20:00,
2013-03-19 15:25:00,70.8,25.2,29.84,North,10,0.0,3.0,18,0.00,,SKC,0.00,VWS V14.01,2013-03-19 19:25:00,
2013-03-19 15:30:00,70.8,26.5,29.84,ESE,120,0.0,3.0,19,0.00,,SKC,0.00,VWS V14.01,2013-03-19 19:30:00,
2013-03-19 15:35:00,70.8,27.8,29.84,North,11,0.0,1.0,20,0.00,,SKC,0.00,VWS V14.01,2013-03-19 19:35:00,
2013-03-19 15:40:00,70.8,27.8,29.84,WSW,240,1.0,4.0,20,0.00,,SKC,0.00,VWS V14.01,2013-03-19 19:40:00,
2013-03-19 15:45:00,70.6,23.7,29.84,North,7,1.0,5.0,17,0.00,,SKC,0.00,VWS V14.01,2013-03-19 19:45:00,
2013-03-19 15:50:00,70.4,27.5,29.84,NNW,346,0.0,5.0,20,0.00,,SKC,0.00,VWS V14.01,2013-03-19 19:50:00,
2013-03-19 15:55:00,70.6,26.4,29.84,North,357,0.0,5.0,19,0.00,,SKC,0.00,VWS V14.01,2013-03-19 19:55:00,
2013-03-19 16:00:00,70.6,28.8,29.84,North,352,0.0,5.0,21,0.00,,SKC,0.00,VWS V14.01,2013-03-19 20:00:00,
2013-03-19 16:05:00,70.8,26.5,29.84,NE,52,0.0,1.0,19,0.00,,SKC,0.00,VWS V14.01,2013-03-19 20:05:00,
2013-03-19 16:10:00,70.9,25.3,29.84,SW,227,0.0,5.0,18,0.00,,SKC,0.00,VWS V14.01,2013-03-19 20:10:00,
2013-03-19 16:15:00,70.9,25.3,29.84,North,4,0.0,5.0,18,0.00,,SKC,0.00,VWS V14.01,2013-03-19 20:15:00,
2013-03-19 16:20:00,70.8,23.9,29.84,WNW,301,0.0,5.0,17,0.00,,SKC,0.00,VWS V14.01,2013-03-19 20:20:00,
2013-03-19 16:25:00,70.9,27.9,29.84,NW,318,0.0,5.0,20,0.00,,SKC,0.00,VWS V14.01,2013-03-19 20:25:00,
2013-03-19 16:30:00,70.9,25.3,29.84,North,0,0.0,5.0,18,0.00,,SKC,0.00,VWS V14.01,2013-03-19 20:30:00,
2013-03-19 16:35:00,71.1,25.5,29.84,ESE,120,1.0,4.0,18,0.00,,SKC,0.00,VWS V14.01,2013-03-19 20:35:00,
2013-03-19 16:40:00,70.8,23.9,29.84,WSW,250,0.0,4.0,17,0.00,,SKC,0.00,VWS V14.01,2013-03-19 20:40:00,
2013-03-19 16:45:00,70.8,26.5,29.84,NE,35,0.0,5.0,19,0.00,,SKC,0.00,VWS V14.01,2013-03-19 20:45:00,
2013-03-19 16:50:00,70.9,26.6,29.84,NNE,31,2.0,5.0,19,0.00,,SKC,0.00,VWS V14.01,2013-03-19 20:50:00,
2013-03-19 16:55:00,70.8,23.9,29.84,NNE,31,1.0,5.0,17,0.00,,SKC,0.00,VWS V14.01,2013-03-19 20:55:00,
2013-03-19 17:00:00,70.3,23.5,29.84,North,1,3.0,6.0,17,0.00,,SKC,0.00,VWS V14.01,2013-03-19 21:00:00,
2013-03-19 17:05:00,69.9,21.7,29.85,North,352,4.0,5.0,16,0.00,,SKC,0.00,VWS V14.01,2013-03-19 21:05:00,
2013-03-19 17:10:00,69.8,23.1,29.85,NNE,16,0.0,6.0,17,0.00,,SKC,0.00,VWS V14.01,2013-03-19 21:10:00,
2013-03-19 17:15:00,69.6,21.5,29.85,ESE,119,0.0,7.0,16,0.00,,SKC,0.00,VWS V14.01,2013-03-19 21:15:00,
2013-03-19 17:20:00,69.3,21.2,29.86,NNE,23,3.0,7.0,16,0.00,,SKC,0.00,VWS V14.01,2013-03-19 21:20:00,
2013-03-19 17:25:00,68.9,20.9,29.86,NNE,18,0.0,7.0,16,0.00,,SKC,0.00,VWS V14.01,2013-03-19 21:25:00,
2013-03-19 17:30:00,68.8,22.2,29.86,NE,52,1.0,7.0,17,0.00,,SKC,0.00,VWS V14.01,2013-03-19 21:30:00,
2013-03-19 17:35:00,68.6,23.4,29.86,NNW,346,2.0,6.0,18,0.00,,SKC,0.00,VWS V14.01,2013-03-19 21:35:00,
2013-03-19 17:40:00,68.3,21.8,29.86,East,83,2.0,6.0,17,0.00,,SKC,0.00,VWS V14.01,2013-03-19 21:40:00,
2013-03-19 17:45:00,67.8,25.3,29.86,North,356,3.0,6.0,20,0.00,,SKC,0.00,VWS V14.01,2013-03-19 21:45:00,
2013-03-19 17:50:00,67.1,22.2,29.86,West,277,0.0,6.0,18,0.00,,SKC,0.00,VWS V14.01,2013-03-19 21:50:00,
2013-03-19 17:55:00,66.6,21.8,29.86,NE,41,0.0,6.0,18,0.00,,SKC,0.00,VWS V14.01,2013-03-19 21:55:00,
2013-03-19 18:00:00,66.3,20.2,29.86,North,7,0.0,6.0,17,0.00,,SKC,0.00,VWS V14.01,2013-03-19 22:00:00,
2013-03-19 18:05:00,66.0,20.0,29.86,SSW,205,2.0,2.0,17,0.00,,SKC,0.00,VWS V14.01,2013-03-19 22:05:00,
2013-03-19 18:10:00,65.6,19.6,29.86,NE,48,1.0,4.0,17,0.00,,SKC,0.00,VWS V14.01,2013-03-19 22:10:00,
2013-03-19 18:15:00,65.2,21.9,29.86,North,0,0.0,4.0,19,0.00,,SKC,0.00,VWS V14.01,2013-03-19 22:15:00,
2013-03-19 18:20:00,64.8,20.3,29.87,NNE,23,0.0,4.0,18,0.00,,SKC,0.00,VWS V14.01,2013-03-19 22:20:00,
2013-03-19 18:25:00,64.5,21.4,29.87,NNE,32,1.0,4.0,19,0.00,,SKC,0.00,VWS V14.01,2013-03-19 22:25:00,
2013-03-19 18:30:00,64.3,21.2,29.87,North,10,0.0,5.0,19,0.00,,SKC,0.00,VWS V14.01,2013-03-19 22:30:00,
2013-03-19 18:35:00,64.0,20.9,29.88,NE,35,0.0,1.0,19,0.00,,SKC,0.00,VWS V14.01,2013-03-19 22:35:00,
2013-03-19 18:40:00,63.9,19.6,29.88,North,0,0.0,2.0,18,0.00,,SKC,0.00,VWS V14.01,2013-03-19 22:40:00,
2013-03-19 18:45:00,63.5,20.5,29.88,North,0,1.0,4.0,19,0.00,,SKC,0.00,VWS V14.01,2013-03-19 22:45:00,
2013-03-19 18:50:00,63.1,20.2,29.89,NNE,21,0.0,5.0,19,0.00,,SKC,0.00,VWS V14.01,2013-03-19 22:50:00,
2013-03-19 18:55:00,62.9,20.0,29.89,WSW,237,0.0,5.0,19,0.00,,SKC,0.00,VWS V14.01,2013-03-19 22:55:00,
2013-03-19 19:00:00,62.6,19.8,29.89,NNE,28,1.0,9.0,19,0.00,,SKC,0.00,VWS V14.01,2013-03-19 23:00:00,
2013-03-19 19:05:00,62.4,19.6,29.90,NE,40,0.0,1.0,19,0.00,,SKC,0.00,VWS V14.01,2013-03-19 23:05:00,
2013-03-19 19:10:00,62.0,19.3,29.90,East,83,1.0,5.0,19,0.00,,SKC,0.00,VWS V14.01,2013-03-19 23:10:00,
2013-03-19 19:15:00,61.8,19.1,29.90,NNE,27,0.0,6.0,19,0.00,,SKC,0.00,VWS V14.01,2013-03-19 23:15:00,
2013-03-19 19:20:00,61.5,18.9,29.90,North,0,1.0,6.0,19,0.00,,SKC,0.00,VWS V14.01,2013-03-19 23:20:00,
2013-03-19 19:25:00,61.2,18.6,29.90,NE,45,0.0,6.0,19,0.00,,SKC,0.00,VWS V14.01,2013-03-19 23:25:00,
2013-03-19 19:30:00,60.9,20.7,29.90,NE,47,0.0,6.0,21,0.00,,SKC,0.00,VWS V14.01,2013-03-19 23:30:00,
2013-03-19 19:35:00,60.4,21.4,29.91,NNE,14,0.0,0.0,22,0.00,,SKC,0.00,VWS V14.01,2013-03-19 23:35:00,
2013-03-19 19:40:00,60.1,21.1,29.91,ENE,72,0.0,2.0,22,0.00,,SKC,0.00,VWS V14.01,2013-03-19 23:40:00,
2013-03-19 19:45:00,59.6,20.7,29.91,NNE,28,0.0,5.0,22,0.00,,SKC,0.00,VWS V14.01,2013-03-19 23:45:00,
2013-03-19 19:50:00,59.2,22.5,29.92,NNE,30,0.0,5.0,24,0.00,,SKC,0.00,VWS V14.01,2013-03-19 23:50:00,
2013-03-19 19:55:00,58.9,22.2,29.92,North,11,0.0,6.0,24,0.00,,SKC,0.00,VWS V14.01,2013-03-19 23:55:00,
2013-03-19 20:00:00,58.4,21.8,29.92,NNE,14,0.0,6.0,24,0.00,,SKC,0.00,VWS V14.01,2013-03-20 00:00:00,
2013-03-19 20:05:00,58.1,22.5,29.93,NE,38,1.0,3.0,25,0.00,,SKC,0.00,VWS V14.01,2013-03-20 00:05:00,
2013-03-19 20:10:00,57.6,22.1,29.93,NE,38,0.0,3.0,25,0.00,,SKC,0.00,VWS V14.01,2013-03-20 00:10:00,
2013-03-19 20:15:00,57.2,21.7,29.93,NE,38,0.0,3.0,25,0.00,,SKC,0.00,VWS V14.01,2013-03-20 00:15:00,
2013-03-19 20:20:00,56.7,22.2,29.93,NE,38,0.0,3.0,26,0.00,,SKC,0.00,VWS V14.01,2013-03-20 00:20:00,
2013-03-19 20:25:00,56.3,21.9,29.93,NE,41,1.0,3.0,26,0.00,,SKC,0.00,VWS V14.01,2013-03-20 00:25:00,
2013-03-19 20:30:00,56.0,23.4,29.93,NE,41,0.0,3.0,28,0.00,,SKC,0.00,VWS V14.01,2013-03-20 00:30:00,
2013-03-19 20:35:00,55.6,22.2,29.94,NNE,20,0.0,1.0,27,0.00,,SKC,0.00,VWS V14.01,2013-03-20 00:35:00,
2013-03-19 20:40:00,55.3,21.9,29.94,NNE,20,0.0,1.0,27,0.00,,SKC,0.00,VWS V14.01,2013-03-20 00:40:00,
2013-03-19 20:45:00,55.0,21.6,29.94,NNE,20,0.0,1.0,27,0.00,,SKC,0.00,VWS V14.01,2013-03-20 00:45:00,
2013-03-19 20:50:00,54.7,22.3,29.95,NNE,20,0.0,1.0,28,0.00,,SKC,0.00,VWS V14.01,2013-03-20 00:50:00,
2013-03-19 20:55:00,54.2,21.8,29.95,NNE,20,0.0,1.0,28,0.00,,SKC,0.00,VWS V14.01,2013-03-20 00:55:00,
2013-03-19 21:00:00,53.9,21.6,29.95,NNE,20,0.0,1.0,28,0.00,,SKC,0.00,VWS V14.01,2013-03-20 01:00:00,
2013-03-19 21:05:00,53.5,22.9,29.95,NNE,20,0.0,0.0,30,0.00,,SKC,0.00,VWS V14.01,2013-03-20 01:05:00,
2013-03-19 21:10:00,53.1,22.5,29.95,NNE,20,0.0,0.0,30,0.00,,SKC,0.00,VWS V14.01,2013-03-20 01:10:00,
2013-03-19 21:15:00,52.6,22.9,29.95,NNE,20,0.0,0.0,31,0.00,,SKC,0.00,VWS V14.01,2013-03-20 01:15:00,
2013-03-19 21:20:00,52.3,24.1,29.95,NNE,20,0.0,0.0,33,0.00,,SKC,0.00,VWS V14.01,2013-03-20 01:20:00,
2013-03-19 21:25:00,51.7,22.8,29.95,NNE,20,0.0,0.0,32,0.00,,SKC,0.00,VWS V14.01,2013-03-20 01:25:00,
2013-03-19 21:30:00,51.4,22.5,29.95,NNE,20,0.0,0.0,32,0.00,,SKC,0.00,VWS V14.01,2013-03-20 01:30:00,
2013-03-19 21:35:00,51.1,23.7,29.97,NNE,20,0.0,0.0,34,0.00,,SKC,0.00,VWS V14.01,2013-03-20 01:35:00,
2013-03-19 21:40:00,50.8,23.5,29.97,NNE,20,0.0,0.0,34,0.00,,SKC,0.00,VWS V14.01,2013-03-20 01:40:00,
2013-03-19 21:45:00,50.7,23.4,29.97,NNE,20,0.0,1.0,34,0.00,,SKC,0.00,VWS V14.01,2013-03-20 01:45:00,
2013-03-19 21:50:00,50.5,24.6,29.97,NE,52,0.0,1.0,36,0.00,,SKC,0.00,VWS V14.01,2013-03-20 01:50:00,
2013-03-19 21:55:00,50.4,23.8,29.97,NE,52,0.0,1.0,35,0.00,,SKC,0.00,VWS V14.01,2013-03-20 01:55:00,
2013-03-19 22:00:00,50.4,24.5,29.97,NE,52,0.0,1.0,36,0.00,,SKC,0.00,VWS V14.01,2013-03-20 02:00:00,
2013-03-19 22:05:00,50.4,24.5,29.97,NNE,31,0.0,0.0,36,0.00,,SKC,0.00,VWS V14.01,2013-03-20 02:05:00,
2013-03-19 22:10:00,50.2,23.6,29.97,NNE,31,0.0,1.0,35,0.00,,SKC,0.00,VWS V14.01,2013-03-20 02:10:00,
2013-03-19 22:15:00,50.4,23.1,29.97,North,10,0.0,3.0,34,0.00,,SKC,0.00,VWS V14.01,2013-03-20 02:15:00,
2013-03-19 22:20:00,50.4,22.4,29.96,North,10,0.0,3.0,33,0.00,,SKC,0.00,VWS V14.01,2013-03-20 02:20:00,
2013-03-19 22:25:00,50.2,22.2,29.96,North,11,0.0,3.0,33,0.00,,SKC,0.00,VWS V14.01,2013-03-20 02:25:00,
2013-03-19 22:30:00,50.1,22.1,29.96,North,11,0.0,3.0,33,0.00,,SKC,0.00,VWS V14.01,2013-03-20 02:30:00,
2013-03-19 22:35:00,49.9,22.0,29.97,North,11,0.0,0.0,33,0.00,,SKC,0.00,VWS V14.01,2013-03-20 02:35:00,
2013-03-19 22:40:00,49.8,22.6,29.97,North,11,0.0,0.0,34,0.00,,SKC,0.00,VWS V14.01,2013-03-20 02:40:00,
2013-03-19 22:45:00,49.5,21.6,29.97,North,11,0.0,2.0,33,0.00,,SKC,0.00,VWS V14.01,2013-03-20 02:45:00,
2013-03-19 22:50:00,49.4,21.5,29.97,North,11,0.0,2.0,33,0.00,,SKC,0.00,VWS V14.01,2013-03-20 02:50:00,
2013-03-19 22:55:00,49.1,21.3,29.97,North,11,0.0,2.0,33,0.00,,SKC,0.00,VWS V14.01,2013-03-20 02:55:00,
2013-03-19 23:00:00,48.8,21.7,29.97,North,11,0.0,2.0,34,0.00,,SKC,0.00,VWS V14.01,2013-03-20 03:00:00,
2013-03-19 23:05:00,48.6,21.5,29.97,North,8,0.0,1.0,34,0.00,,SKC,0.00,VWS V14.01,2013-03-20 03:05:00,
2013-03-19 23:10:00,48.5,21.4,29.97,North,8,0.0,1.0,34,0.00,,SKC,0.00,VWS V14.01,2013-03-20 03:10:00,
2013-03-19 23:15:00,48.3,19.8,29.97,North,10,0.0,2.0,32,0.00,,SKC,0.00,VWS V14.01,2013-03-20 03:15:00,
2013-03-19 23:20:00,48.3,19.8,29.97,North,8,0.0,2.0,32,0.00,,SKC,0.00,VWS V14.01,2013-03-20 03:20:00,
2013-03-19 23:25:00,48.2,20.5,29.97,North,8,0.0,2.0,33,0.00,,SKC,0.00,VWS V14.01,2013-03-20 03:25:00,
2013-03-19 23:30:00,47.9,19.5,29.97,North,8,0.0,2.0,32,0.00,,SKC,0.00,VWS V14.01,2013-03-20 03:30:00,
2013-03-19 23:35:00,47.7,20.0,29.97,North,8,0.0,0.0,33,0.00,,SKC,0.00,VWS V14.01,2013-03-20 03:35:00,
2013-03-19 23:40:00,47.4,19.8,29.97,North,8,0.0,0.0,33,0.00,,SKC,0.00,VWS V14.01,2013-03-20 03:40:00,
2013-03-19 23:45:00,47.3,20.4,29.97,North,8,0.0,0.0,34,0.00,,SKC,0.00,VWS V14.01,2013-03-20 03:45:00,
2013-03-19 23:50:00,47.1,18.8,29.97,North,8,0.0,0.0,32,0.00,,SKC,0.00,VWS V14.01,2013-03-20 03:50:00,
2013-03-19 23:55:00,47.0,20.8,29.97,North,8,0.0,0.0,35,0.00,,SKC,0.00,VWS V14.01,2013-03-20 03:55:00,